This demonstration page uses our WeatherBlox Daily Observations layout. Learn more.

Left ArrowRight Arrow

34.02893, -84.19858

Hourly Observations for January 17, 2018

Temp ( °F °C ) Dew Point ( °F °C ) Humidity (%) Winds ( mph kmh ) Pressure ( in mb ) Visibility ( mi km ) Precip ( " mm )
12:53 am 00:53 Cloudy with Light Snow 23 -5 19 -7.2 85 85 NW 14 22 30.40 1029 3 5 0.00 0.03
1:43 am 01:43 Cloudy with Light Snow 21 -6.1 16 -8.9 81 81 NW 12 19 30.42 1030 3 4 0.00 0.03
1:53 am 01:53 Cloudy with Light Snow 21 -6.1 16 -8.9 81 81 NW 12 19 30.40 1029 2 2 0.00 0.03
2:06 am 02:06 Cloudy with Light Snow 21 -6.1 16 -8.9 81 81 NW 12 19 30.45 1031 2 3 0.00 0.03
2:29 am 02:29 Cloudy with Light Snow 20 -6.7 16 -8.9 85 85 NW 10 17 30.42 1030 2 2 0.00 0.03
2:53 am 02:53 Cloudy with Light Snow 20 -6.7 16 -8.9 85 85 NW 8 13 30.38 1029 3 4 0.00 0.03
3:07 am 03:07 Cloudy with Light Snow 20 -6.7 15 -9.4 81 81 NW 10 17 30.42 1030 3 5 0.00 0.03
3:31 am 03:31 Cloudy with Light Snow 19 -7.2 15 -9.4 84 84 WNW 15 24 30.45 1031 2 3 0.00 0.03
3:53 am 03:53 Cloudy with Light Snow 19 -7.2 14 -10 81 81 NW 14 22 30.40 1029 3 5 0.00 0.03
4:11 am 04:11 Cloudy with Light Snow 18 -7.8 13 -10.6 81 81 WNW 15 24 30.42 1030 2 3 0.00 0.03
4:18 am 04:18 Cloudy with Light Snow 17 -8.3 13 -10.6 84 84 NW 12 19 30.42 1030 2 2 0.00 0.03
4:53 am 04:53 Mostly Cloudy with Light Snow 16 -8.9 12 -11.1 84 84 NW 16 26 30.40 1030 1 2 0.00 0.03
5:05 am 05:05 Mostly Cloudy with Light Snow 16 -8.9 11 -11.7 80 80 WNW 14 22 30.45 1031 1 1 0.00 0.03
5:12 am 05:12 Mostly Cloudy with Light Snow 16 -8.9 11 -11.7 80 80 WNW 10 17 30.42 1030 1 2 0.00 0.03
5:40 am 05:40 Mostly Cloudy with Light Snow 15 -9.4 11 -11.7 84 84 NW 14 22 30.42 1030 1 1 0.01 0.25
5:53 am 05:53 Mostly Cloudy with Light Snow 15 -9.4 11 -11.7 84 84 NW 12 19 30.38 1029 1 1 0.01 0.25
6:01 am 06:01 Cloudy with Light Snow 15 -9.4 11 -11.7 84 84 WNW 13 20 30.42 1030 1 2 0.00 0.03
6:08 am 06:08 Cloudy with Light Snow 15 -9.4 11 -11.7 84 84 WNW 10 17 30.42 1030 3 5 0.00 0.03
6:17 am 06:17 Cloudy 15 -9.4 11 -11.7 84 84 WNW 10 17 30.42 1030 8 13 0.00 0.03
6:53 am 06:53 Cloudy 15 -9.4 8 -13.3 74 74 WNW 14 22 30.40 1030 10 16 0.00 0.03
7:53 am 07:53 Mostly Cloudy 14 -10 6 -14.4 71 71 WNW 16 26 30.41 1030 10 16 0.00 0.00
8:53 am 08:53 Sunny 13 -10.6 6 -14.4 74 74 WNW 15 24 30.43 1031 10 16 0.00 0.00
9:53 am 09:53 Sunny 14 -10 5 -15 67 67 WNW 18 30 30.45 1031 10 16 0.00 0.00
10:53 am 10:53 Sunny 16 -8.9 6 -14.4 65 65 WNW 16 26 30.47 1032 10 16 0.00 0.00
11:53 am 11:53 Sunny 17 -8.3 6 -14.4 62 62 WNW 18 30 30.47 1032 10 16 0.00 0.00
12:53 pm 12:53 Sunny 19 -7.2 7 -13.9 59 59 WNW 17 28 30.44 1031 10 16 0.00 0.00
1:53 pm 13:53 Sunny 21 -6.1 7 -13.9 54 54 WNW 18 30 30.42 1030 10 16 0.00 0.00
2:53 pm 14:53 Sunny 22 -5.6 7 -13.9 52 52 WNW 22 35 30.41 1030 10 16 0.00 0.00
3:53 pm 15:53 Sunny 24 -4.4 7 -13.9 48 48 WNW 20 31 30.42 1030 10 16 0.00 0.00
4:53 pm 16:53 Sunny 23 -5 7 -13.9 50 50 NW 17 28 30.43 1031 10 16 0.00 0.00
5:53 pm 17:53 Sunny 22 -5.6 7 -13.9 52 52 NW 17 28 30.45 1031 10 16 0.00 0.00
6:53 pm 18:53 Clear 21 -6.1 7 -13.9 54 54 NW 18 30 30.48 1032 10 16 0.00 0.00
7:53 pm 19:53 Clear 20 -6.7 6 -14.4 55 55 NNW 17 28 30.48 1032 10 16 0.00 0.00
8:53 pm 20:53 Clear 19 -7.2 6 -14.4 57 57 NNW 16 26 30.49 1033 10 16 0.00 0.00
9:53 pm 21:53 Clear 18 -7.8 7 -13.9 62 62 NNW 10 17 30.50 1033 10 16 0.00 0.00
10:53 pm 22:53 Clear 17 -8.3 7 -13.9 64 64 NNW 10 17 30.49 1032 10 16 0.00 0.00
11:53 pm 23:53 Clear 16 -8.9 7 -13.9 67 67 NW 8 13 30.48 1032 10 16 0.00 0.00

Powered by AerisWeather